Showing default

FENGYUN 4A, 41882

Orbit data source: Space-Track

FENGYUN 4A, 41882 is a payload satellite owned by CNMSC (CN) in GEO that was launched on Sat, 10 Dec 2016 UTC via a CHANG ZHENG 3B launch vehicle from the Xichang Space Center, China (XSC). Payload-class satellites include a variety of spacecraft equipped with specific instruments for various scientific and technological missions. These include communications satellites like Starlink; space stations such as the ISS; scientific satellites like the Hubble; Earth observation satellites from companies like Planet Labs, Umbra, and HawkEye 360; GPS; miniature CubeSats for education and research; and military/defense satellites.

Not visible in the next 10 days
Identifier
41882, 2016-077A
Orbit
GEO
Country
Flag of CNCN / PRC
Related business
Manufacturer
SISE
Mission
Operational Civil Weather
Bus & Motor
FY-4, LAE?
Mass
5,380 kg wet, ~3,000 kg dry
Launch date (UTC)
2016-12-10 (9 years ago)
Launch vehicle
CHANG ZHENG 3B
Launch site
Xichang Space Center, China (XSC)
Object type
Payload
Rocket body
Debris
Shape & HBR
Box + 1 Pan, 5.0 m
Radar Cross Section
24.437 m², Large (>1 m²)

Expand to show TLE details & history
Last TLE update: 12 hours ago

TLE from 12 hours ago
0 FENGYUN 4A
1 41882U 16077A   25259.60977192 -.00000376  00000-0  00000-0 0  9995
2 41882   1.6225  83.1862 0007099 161.0564  94.7413  1.00268244 32186
Epoch: 2025-09-16T14:38Z
TLE epoch observation values (Epoch: 2025-09-16T14:38:04.293Z)
Latitude
-1.57479°
Longitude
123.74216°
Altitude
35,789.844 km
Speed
3.074 km/s
True Right ascension
22h 36m 13s
True Declination
-1° 34' 23"
Sunlit
Object was in daylight at epoch
Visualization orbit readout
Latitude
Unknown
Longitude
Unknown
Altitude
Unknown
Speed
Unknown
Apparent Right ascension
Unknown
Apparent Declination
Unknown
Sunlit
N/A
Visualization observer readout
Local Sidereal Time
19:09:25
Azimuth
Unknown
Elevation
Unknown
Doppler factor
Unknown
Orbital elements
Apogee altitude
35,818.591 km
Perigee altitude
35,758.723 km
Semi-major axis
42,166.794 km
Eccentricity
0.00071
Inclination
1.6225°
RAAN
83.1862°
Arg. of periapsis
161.0564°
True anomaly
94.82236°
Mean anomaly
94.7413°
Eccentric anomaly
94.78183°
Mean motion
0.25066 °/min
Orbital period
1,436.2 mins
BSTAR
0
Loading maneuver chart data...
Computing Atmospheric mass density...
Loading historical data...
Loading historical data...
Loading historical data...
Loading historical data...
Loading historical data...
Loading historical data...
Loading historical data...
Other satellites on launch #77 in the year 2016 (2016-12-10 UTC)

Documentation

Showing up to 5 results
|